Temperature
13 14 15 15 15 15 14 14 14 13 13 12 11 11 11 10 10 10 10 9 9 9 8 8 8 7 7 7 7 6 6 6 6 5 5 5 5 5 6 7 8 8 8
13 13 14 14 14 14 14 14 13 13 12 12 11 11 11 11 10 10 10 9 9 9 8 8 8 8 7 7 7 7 6 6 5 4 3 4 5 6 5 6 7 8 8
13 12 13 13 13 13 13 13 13 12 12 12 11 11 11 11 10 10 10 10 9 9 9 8 8 8 7 7 7 7 6 5 5 4 3 3 5 6 5 5 5 6 6
12 12 12 13 13 13 12 12 12 12 12 11 11 11 10 10 10 10 9 9 9 9 8 8 8 7 7 7 7 7 6 5 5 4 3 3 3 3 4 4 4 4 4
11 12 12 12 12 12 12 12 12 11 11 11 11 10 10 9 9 9 9 8 8 8 8 8 7 7 7 7 6 6 5 5 4 4 3 2 2 1 1 2 4 4 3
11 11 11 11 11 11 11 11 11 11 11 10 10 9 9 9 8 8 8 8 7 7 7 7 7 6 6 6 6 5 5 5 4 3 3 2 1 1 1 1 2 3 3
11 10 10 11 11 11 11 10 10 10 10 9 9 9 8 8 7 7 7 7 6 6 6 6 6 6 5 5 5 5 4 4 4 3 3 2 2 1 1 1 1 2 2
10 10 10 10 10 10 10 10 9 9 9 8 8 8 7 7 6 6 6 6 5 5 5 5 5 5 5 4 4 4 4 3 3 3 2 2 2 1 1 0 0 0 1
10 9 9 9 9 9 9 9 9 8 8 7 7 7 6 6 6 5 5 5 5 4 4 4 4 4 4 4 3 3 3 2 2 2 2 1 1 1 0 -0 -1 -1 -0
9 9 9 9 9 9 8 8 8 7 7 6 6 6 5 5 5 5 4 4 4 4 4 3 3 3 3 3 2 2 2 1 1 1 1 0 0 0 -0 -1 -1 -1 -2
9 8 8 8 8 8 8 7 7 6 6 6 5 5 5 4 4 4 4 3 3 3 2 2 2 2 1 1 1 1 0 0 0 -0 -0 -0 -1 -1 -1 -1 -1 -2 -2
8 8 8 8 7 7 7 6 6 5 5 5 5 4 4 4 3 3 3 2 2 2 1 1 1 1 1 0 0 -0 -0 -1 -1 -1 -1 -1 -1 -2 -2 -2 -2 -2 -2
7 7 7 7 7 6 6 6 5 5 4 4 4 3 3 3 2 2 2 2 1 1 1 0 0 -0 -0 -0 -0 -1 -1 -1 -1 -2 -2 -2 -2 -2 -2 -2 -2 -2 -2
7 7 6 6 6 6 5 5 4 4 4 3 3 3 2 2 2 1 1 1 0 0 0 -0 -0 -1 -1 -1 -1 -1 -2 -2 -2 -2 -2 -2 -3 -3 -3 -3 -3 -3 -3
6 6 6 6 5 5 4 4 4 3 3 3 2 2 1 1 1 1 0 0 -0 -1 -1 -1 -1 -1 -1 -2 -2 -2 -3 -3 -3 -3 -3 -3 -3 -3 -3 -3 -3 -3 -3
6 5 5 5 4 4 4 3 3 3 2 2 1 1 1 0 0 -0 -0 -1 -1 -1 -2 -2 -2 -2 -2 -2 -3 -3 -3 -3 -3 -3 -3 -3 -3 -3 -3 -3 -3 -3 -3
5 5 4 4 4 3 3 2 2 2 2 1 1 0 0 -0 -1 -1 -1 -2 -2 -2 -2 -2 -2 -3 -3 -3 -3 -4 -4 -4 -4 -4 -4 -4 -3 -3 -3 -3 -3 -3 -3
5 4 4 4 3 3 2 2 2 1 1 0 0 -0 -1 -1 -1 -2 -2 -2 -2 -3 -3 -3 -3 -3 -3 -4 -4 -4 -4 -4 -4 -4 -4 -4 -4 -4 -4 -4 -4 -4 -4
4 4 3 3 3 2 2 1 1 1 0 -0 -1 -1 -1 -2 -2 -3 -3 -3 -3 -3 -3 -4 -4 -4 -4 -4 -4 -5 -5 -5 -5 -4 -4 -4 -4 -4 -4 -4 -4 -4 -4
4 3 3 2 2 2 1 1 0 -0 -0 -1 -1 -1 -2 -2 -3 -3 -3 -3 -4 -4 -4 -4 -4 -4 -4 -4 -5 -5 -5 -5 -5 -5 -5 -4 -4 -4 -4 -4 -4 -4 -4
3 3 2 2 2 1 0 0 -0 -1 -1 -1 -2 -2 -3 -3 -3 -4 -4 -4 -4 -5 -5 -5 -5 -5 -5 -5 -5 -5 -5 -5 -5 -5 -5 -5 -5 -5 -4 -4 -4 -4 -4
3 2 2 1 1 1 -0 -0 -1 -1 -2 -2 -2 -3 -3 -4 -4 -4 -5 -5 -5 -5 -5 -5 -5 -5 -5 -5 -6 -6 -5 -5 -5 -5 -5 -5 -5 -5 -5 -5 -4 -4 -5
2 1 1 1 1 0 -1 -1 -1 -2 -2 -3 -3 -4 -4 -4 -5 -5 -5 -5 -5 -6 -6 -6 -6 -6 -6 -6 -6 -6 -6 -6 -5 -5 -5 -5 -5 -5 -5 -5 -5 -5 -5
1 1 0 -0 -0 -1 -1 -2 -2 -3 -3 -4 -4 -4 -4 -5 -5 -5 -6 -6 -6 -6 -6 -6 -6 -6 -6 -6 -6 -6 -6 -6 -6 -6 -6 -5 -5 -5 -5 -5 -5 -6 -6
1 0 -0 -1 -1 -1 -2 -2 -3 -3 -4 -4 -4 -5 -5 -5 -6 -6 -6 -6 -6 -6 -6 -6 -6 -6 -6 -6 -6 -6 -6 -6 -6 -6 -6 -6 -6 -6 -6 -6 -6 -6 -6
0 -0 -1 -1 -2 -2 -2 -2 -3 -4 -4 -5 -5 -5 -6 -6 -6 -6 -6 -6 -6 -6 -6 -7 -7 -7 -7 -6 -6 -6 -6 -6 -6 -6 -6 -6 -6 -6 -6 -6 -6 -6 -6
Wind_Speed
12 13 14 13 13 11 10 8 6 4 3 3 3 4 5 6 7 9 12 14 15 15 15 14 15 14 13 14 16 15 15 14 12 11 13 16 18 19 17 17 17 19 23
12 13 13 13 13 12 10 8 6 4 3 2 2 2 4 5 6 7 10 12 14 15 14 15 13 13 12 15 16 15 13 12 11 9 9 10 12 15 16 16 16 17 17
11 11 12 13 12 12 10 7 6 4 2 1 1 2 3 4 5 6 7 9 12 14 15 16 15 14 13 13 15 15 16 14 12 12 11 9 9 9 8 13 14 15 14
9 10 10 11 11 10 8 8 7 5 3 1 1 3 4 5 6 6 7 9 10 12 13 15 15 14 13 15 15 15 14 15 14 13 14 15 12 10 9 9 11 13 15
8 9 9 9 9 8 7 7 7 6 4 2 2 3 5 6 7 7 9 9 9 10 12 13 13 13 13 15 16 16 16 14 15 14 13 15 15 17 13 16 16 14 14
7 8 7 7 8 7 7 6 6 6 5 4 3 4 6 8 9 10 10 9 8 8 10 11 12 13 12 14 15 16 17 16 17 16 15 15 13 13 15 17 18 17 16
7 6 6 6 6 7 6 6 6 6 5 5 5 6 7 8 10 10 10 10 9 9 11 10 11 12 13 14 15 15 16 18 19 18 16 16 16 16 16 17 18 20 18
5 5 5 4 4 5 5 5 6 6 6 6 6 7 8 7 8 10 10 11 10 11 13 13 13 14 15 15 15 14 16 16 18 19 19 16 16 16 16 17 17 19 19
5 4 4 3 3 4 5 5 5 6 7 7 8 8 9 9 10 11 12 11 11 12 14 14 15 15 15 16 16 14 17 17 17 18 19 17 16 16 16 16 16 17 19
5 4 3 2 2 3 4 5 6 7 7 8 8 8 10 11 12 12 13 14 14 14 15 15 16 16 16 16 16 16 17 18 18 16 18 19 16 16 16 16 16 17 18
4 3 2 1 2 3 4 6 7 8 8 9 10 11 12 12 13 13 14 14 15 15 16 16 17 17 17 17 17 18 19 19 19 19 19 20 20 16 16 15 16 16 16
3 2 1 1 3 4 6 7 8 9 10 10 12 13 13 13 14 15 15 16 16 16 17 17 18 18 18 18 19 19 19 20 20 20 20 21 17 19 17 16 17 17 17
3 1 1 2 4 6 7 8 9 10 11 12 13 14 15 15 16 16 17 17 17 18 18 18 18 19 19 18 19 19 20 20 21 20 20 20 19 19 17 17 17 16 16
2 1 3 4 6 7 8 9 11 11 12 13 14 15 16 16 17 17 17 17 18 18 19 19 19 19 19 18 18 19 19 20 20 20 19 20 19 19 19 17 18 17 17
1 3 4 6 7 8 9 11 12 13 13 14 15 16 17 17 17 17 18 18 18 18 19 19 19 19 17 16 17 17 19 20 20 20 20 20 22 24 21 17 16 15 15
3 4 6 7 9 10 11 12 13 14 14 15 16 17 17 17 17 18 18 19 19 19 19 19 19 19 16 20 24 22 19 19 19 19 19 19 21 24 28 30 29 24 18
4 6 7 8 9 11 12 13 14 15 15 16 17 17 17 18 18 19 19 20 20 20 20 19 19 20 20 23 26 26 21 20 19 19 18 16 16 21 17 21 25 26 28
5 7 8 9 10 12 13 14 14 15 16 17 17 17 18 19 19 19 20 20 19 19 19 19 20 20 20 24 25 26 21 19 19 18 17 17 17 16 17 16 16 17 19
6 7 8 10 12 13 14 14 16 16 17 17 18 18 19 19 20 20 21 20 19 19 19 19 20 20 21 23 24 24 17 15 17 17 16 16 16 21 23 17 15 17 16
6 8 9 11 13 14 14 15 17 18 18 18 19 19 19 20 20 21 21 19 19 19 19 19 19 20 20 22 24 24 14 15 15 14 14 18 19 22 23 16 14 16 15
8 9 10 12 13 14 15 16 18 19 19 19 19 19 19 20 20 20 19 19 18 19 19 20 18 18 19 21 23 23 14 14 14 13 12 12 19 22 22 20 15 17 16
9 10 11 13 14 15 16 18 19 19 19 19 20 20 20 19 17 19 19 19 19 19 18 18 18 15 15 17 19 23 22 20 15 14 12 13 20 22 22 18 18 20 17
10 11 13 15 15 16 16 19 19 19 19 20 20 20 20 19 18 18 19 18 16 15 15 15 15 15 14 15 21 22 23 23 16 13 19 21 23 22 17 18 20 16 10
12 13 14 16 17 17 17 18 19 19 19 20 20 19 19 19 18 16 15 15 15 15 15 15 15 15 15 14 13 13 15 17 15 14 17 21 20 16 16 15 13 9 8
12 13 14 16 18 19 19 19 18 18 19 20 19 19 17 18 17 16 15 16 16 16 17 15 15 16 16 17 22 19 15 14 15 16 13 11 10 9 9 9 8 8 7
14 14 16 17 19 19 20 19 18 18 18 18 17 15 15 15 15 16 17 18 19 24 25 23 22 18 21 26 26 26 25 25 23 17 12 11 10 10 10 9 8 7 7
Wind_Direction
64 58 57 60 66 69 74 82 96 116 146 168 202 228 243 249 250 251 255 255 254 253 250 253 258 256 252 252 255 257 258 257 259 266 270 264 255 251 249 246 247 245 242
73 63 61 61 62 64 66 72 80 97 129 170 209 246 268 272 271 265 263 260 258 256 254 254 256 256 255 255 256 256 256 257 248 247 269 279 272 249 239 241 242 244 243
82 73 66 63 62 59 58 62 68 77 91 155 227 261 269 274 271 273 271 268 264 260 256 256 258 258 255 256 255 253 249 252 250 236 243 262 269 290 249 237 240 241 241
92 82 74 66 60 58 59 62 65 68 70 96 270 281 287 293 299 298 289 285 274 266 262 261 260 261 258 257 257 253 251 249 253 249 237 244 261 272 280 252 241 244 246
102 90 80 75 67 62 60 60 62 60 55 40 338 301 297 300 302 301 295 294 286 275 268 265 264 262 260 259 258 257 253 247 247 249 248 246 249 250 256 270 267 258 249
115 101 94 88 76 66 59 54 53 47 36 18 347 319 311 308 307 306 304 301 296 288 279 272 267 265 263 261 260 258 256 252 250 249 248 248 246 244 246 259 266 267 264
131 117 106 91 76 61 51 45 39 31 18 3 344 327 315 308 304 306 305 302 298 295 292 286 278 273 268 265 263 261 258 255 253 251 250 249 248 250 253 259 267 270 269
140 126 110 95 76 57 42 33 24 12 0 348 336 325 318 309 305 303 301 297 295 294 295 290 283 279 276 271 266 264 261 258 256 254 252 252 251 249 248 252 262 270 271
151 137 120 99 72 47 28 14 3 355 347 337 327 321 318 311 307 303 299 295 293 294 293 291 287 283 279 275 272 267 265 262 260 258 256 254 254 252 251 250 249 255 268
157 146 129 96 56 27 6 355 347 338 330 326 322 315 312 310 306 302 299 297 296 295 293 292 290 287 284 280 275 272 269 268 265 263 261 259 257 255 252 250 249 247 253
163 157 136 80 22 356 346 341 335 328 325 322 319 314 313 310 306 302 300 299 297 296 294 292 291 288 286 284 280 275 274 272 271 267 263 261 260 259 256 253 250 249 247
154 151 130 8 343 339 337 333 329 324 322 318 314 311 309 307 305 303 303 301 298 296 294 292 290 288 286 284 282 281 278 276 274 271 268 266 264 260 259 256 253 251 248
155 158 330 330 330 330 329 326 324 321 318 315 311 309 308 307 306 305 304 302 299 297 295 292 290 289 288 286 283 282 281 278 276 274 271 269 267 264 260 258 256 255 253
176 305 323 325 326 324 323 321 320 319 316 313 310 308 308 307 305 304 303 301 299 297 296 294 291 289 287 284 282 282 281 279 277 274 271 269 266 264 262 259 257 257 255
243 308 318 319 319 320 319 320 317 316 314 311 308 307 307 306 304 303 302 301 300 297 295 293 291 289 287 283 283 283 281 279 276 273 270 267 265 263 262 259 256 253 253
271 301 309 312 315 317 317 316 314 314 312 308 307 307 306 305 304 303 303 302 300 298 296 294 293 292 288 287 288 288 285 283 280 278 275 272 269 267 266 265 263 257 252
283 296 304 308 311 313 314 311 311 311 309 306 305 306 306 305 304 304 303 302 301 300 298 296 295 293 292 292 292 292 291 286 283 281 279 276 273 273 270 269 269 269 266
288 298 305 307 308 310 309 308 307 306 305 305 305 306 307 305 305 304 303 303 302 300 299 297 297 295 294 296 296 297 294 288 285 283 280 278 276 274 273 270 266 265 265
294 300 303 305 306 307 309 308 306 305 305 305 307 308 307 306 305 304 304 304 303 301 299 298 298 296 297 298 299 298 295 290 287 284 279 277 274 275 276 274 269 268 266
297 302 305 305 305 308 310 307 305 306 306 307 307 306 305 304 303 303 303 302 301 299 299 297 297 296 296 298 300 300 296 292 291 288 282 279 277 278 279 274 270 270 270
300 304 305 304 306 309 310 305 305 306 308 308 306 305 304 303 302 302 301 302 301 299 299 298 297 296 296 299 300 300 298 294 293 291 289 284 283 283 283 281 273 271 272
302 306 306 305 307 309 308 306 306 309 310 308 305 304 304 303 301 301 302 302 301 300 301 301 301 299 299 298 300 302 301 300 297 294 292 288 289 288 287 284 278 276 276
301 304 304 305 307 308 309 306 307 310 309 307 305 305 304 303 302 301 302 302 301 299 300 300 299 301 301 301 301 302 303 302 299 291 291 293 294 293 290 286 284 281 274
302 305 306 305 306 309 309 305 307 309 307 305 305 305 305 304 303 301 299 298 298 298 298 298 299 301 301 301 303 303 304 301 299 296 294 293 290 287 283 283 283 276 268
302 304 303 302 304 307 307 307 308 309 306 305 304 305 304 302 303 301 298 296 293 292 295 296 297 299 299 299 304 306 305 304 300 302 295 291 289 285 281 278 274 268 264
302 302 301 302 304 307 307 308 309 308 305 305 305 304 304 303 302 302 301 293 290 295 295 292 293 294 294 300 304 306 307 307 306 304 295 293 290 288 287 285 278 269 262
Height
1537 1535 1533 1532 1531 1531 1530 1531 1531 1531 1532 1532 1533 1533 1534 1534 1533 1533 1532 1531 1530 1529 1528 1526 1525 1524 1522 1521 1520 1518 1516 1514 1513 1509 1505 1502 1500 1496 1494 1493 1493 1492 1492
1539 1537 1536 1535 1534 1533 1533 1533 1533 1533 1533 1533 1533 1533 1533 1532 1531 1530 1529 1527 1526 1524 1522 1521 1519 1518 1515 1513 1512 1511 1508 1506 1506 1503 1500 1495 1493 1488 1484 1482 1482 1482 1482
1540 1539 1538 1537 1536 1536 1535 1535 1534 1534 1534 1533 1533 1532 1531 1530 1528 1527 1525 1523 1521 1519 1517 1515 1513 1511 1509 1506 1505 1503 1500 1498 1497 1495 1493 1491 1485 1482 1477 1474 1473 1472 1471
1541 1540 1539 1538 1538 1537 1537 1536 1535 1535 1534 1533 1532 1531 1529 1528 1526 1524 1521 1519 1517 1514 1512 1510 1507 1505 1502 1499 1498 1496 1493 1490 1488 1487 1484 1482 1480 1478 1470 1468 1465 1463 1461
1541 1540 1540 1539 1539 1538 1538 1537 1536 1535 1534 1532 1531 1529 1527 1525 1523 1520 1517 1514 1512 1509 1506 1503 1501 1498 1495 1492 1490 1488 1485 1482 1479 1478 1476 1473 1470 1468 1465 1458 1458 1457 1453
1541 1540 1540 1540 1539 1539 1538 1537 1536 1534 1532 1531 1529 1527 1524 1521 1518 1516 1512 1509 1506 1503 1500 1497 1494 1491 1488 1485 1482 1479 1477 1474 1471 1468 1466 1464 1462 1459 1456 1450 1447 1446 1445
1540 1540 1539 1539 1538 1538 1537 1536 1534 1532 1530 1528 1526 1523 1520 1517 1514 1511 1507 1504 1500 1497 1494 1490 1487 1483 1480 1477 1474 1470 1467 1465 1462 1459 1457 1454 1451 1450 1447 1444 1438 1436 1433
1538 1538 1538 1538 1537 1536 1535 1534 1532 1530 1528 1525 1522 1520 1516 1513 1510 1506 1502 1498 1494 1491 1487 1483 1479 1476 1472 1468 1465 1461 1458 1455 1452 1449 1447 1444 1441 1439 1437 1434 1432 1426 1422
1536 1536 1536 1536 1535 1534 1533 1532 1529 1527 1524 1522 1518 1515 1512 1508 1504 1500 1496 1492 1488 1484 1479 1475 1471 1467 1463 1459 1456 1451 1448 1445 1442 1438 1436 1433 1430 1429 1426 1424 1422 1420 1412
1534 1535 1534 1534 1533 1532 1531 1529 1526 1524 1521 1517 1514 1511 1507 1503 1499 1494 1490 1485 1481 1476 1471 1467 1463 1458 1454 1450 1446 1442 1438 1435 1431 1428 1425 1422 1420 1418 1416 1413 1411 1409 1404
1532 1532 1532 1531 1531 1529 1528 1525 1522 1519 1516 1513 1509 1505 1501 1497 1492 1488 1483 1478 1473 1468 1463 1458 1454 1449 1445 1441 1437 1432 1429 1425 1421 1418 1415 1411 1410 1407 1405 1402 1400 1398 1395
1530 1530 1530 1529 1528 1526 1524 1521 1518 1515 1512 1508 1504 1500 1495 1490 1486 1481 1476 1470 1465 1460 1455 1450 1445 1440 1436 1431 1427 1423 1419 1415 1411 1407 1404 1401 1399 1396 1394 1391 1389 1386 1385
1528 1528 1527 1526 1525 1523 1520 1517 1514 1511 1507 1503 1498 1493 1489 1484 1478 1473 1468 1462 1457 1451 1446 1441 1436 1431 1426 1421 1417 1413 1408 1404 1400 1397 1394 1390 1388 1385 1383 1380 1377 1375 1374
1525 1525 1524 1523 1521 1519 1516 1513 1510 1506 1501 1497 1492 1487 1482 1476 1471 1465 1459 1454 1448 1442 1437 1432 1426 1421 1416 1411 1407 1402 1397 1393 1389 1386 1383 1379 1377 1374 1372 1369 1366 1365 1363
1522 1522 1521 1520 1517 1515 1512 1508 1504 1500 1496 1490 1485 1480 1474 1469 1463 1457 1451 1446 1440 1434 1428 1422 1417 1411 1406 1401 1397 1392 1387 1382 1378 1374 1371 1368 1365 1362 1361 1358 1355 1354 1352
1519 1519 1517 1515 1513 1510 1507 1503 1499 1494 1489 1484 1478 1473 1467 1461 1455 1449 1443 1437 1431 1425 1419 1413 1408 1402 1397 1392 1388 1383 1378 1373 1368 1363 1360 1357 1354 1351 1349 1347 1345 1344 1341
1516 1515 1513 1511 1509 1506 1502 1498 1493 1488 1483 1477 1471 1466 1460 1454 1448 1441 1435 1429 1422 1416 1410 1405 1399 1393 1387 1383 1378 1373 1369 1363 1358 1353 1350 1346 1343 1341 1338 1335 1333 1332 1330
1513 1511 1509 1507 1504 1501 1496 1492 1487 1482 1476 1470 1464 1459 1452 1446 1440 1433 1427 1421 1414 1408 1401 1395 1390 1384 1378 1373 1368 1364 1359 1353 1348 1344 1340 1336 1333 1331 1328 1325 1322 1320 1318
1509 1507 1505 1502 1499 1495 1491 1486 1480 1475 1470 1464 1458 1452 1445 1438 1432 1425 1419 1413 1406 1399 1393 1387 1381 1375 1369 1364 1360 1355 1349 1344 1339 1335 1331 1328 1324 1321 1319 1316 1313 1310 1308
1505 1503 1500 1497 1494 1490 1485 1479 1474 1469 1463 1457 1450 1444 1438 1431 1424 1417 1411 1404 1398 1391 1384 1378 1372 1367 1361 1356 1351 1347 1342 1336 1331 1326 1322 1319 1316 1313 1311 1308 1304 1301 1299
1501 1498 1495 1492 1488 1484 1478 1473 1467 1462 1456 1449 1442 1436 1430 1423 1416 1409 1403 1396 1389 1383 1376 1370 1364 1359 1353 1348 1344 1340 1335 1330 1324 1319 1314 1311 1308 1305 1302 1300 1297 1293 1292
1496 1493 1490 1486 1482 1477 1472 1466 1460 1454 1448 1441 1434 1428 1422 1415 1408 1401 1395 1388 1382 1375 1368 1362 1356 1351 1346 1341 1336 1332 1328 1323 1318 1312 1308 1303 1300 1297 1294 1291 1288 1286 1284
1491 1488 1484 1480 1475 1471 1466 1459 1452 1446 1439 1433 1426 1420 1413 1407 1401 1394 1387 1381 1375 1368 1361 1355 1349 1343 1339 1334 1329 1325 1320 1315 1311 1305 1301 1297 1293 1289 1286 1283 1280 1278 1276
1486 1482 1478 1473 1468 1464 1458 1452 1445 1439 1432 1425 1418 1412 1405 1398 1392 1387 1380 1374 1368 1362 1355 1349 1343 1337 1331 1327 1322 1317 1313 1308 1303 1298 1293 1289 1285 1281 1278 1275 1272 1270 1268
1480 1476 1471 1466 1460 1455 1450 1444 1438 1431 1424 1417 1411 1404 1398 1391 1384 1378 1373 1367 1361 1356 1349 1343 1337 1331 1324 1320 1316 1312 1306 1301 1296 1291 1286 1281 1278 1274 1271 1268 1265 1263 1261
1473 1469 1464 1459 1453 1448 1442 1436 1430 1424 1417 1410 1403 1397 1390 1384 1377 1370 1363 1358 1354 1347 1342 1336 1331 1324 1319 1314 1309 1304 1299 1294 1289 1285 1279 1275 1271 1268 1265 1262 1259 1257 1255